BEIDOU-2 IGSO-1

Last updated on Sat Dec 13 2025 00:02:47 GMT+0000 (Coordinated Universal Time)

1 36828U 10036A 25345.91344390 -.00000047 00000+0 00000+0 0 9999 2 36828 54.2856 164.6546 0051169 215.8043 137.1278 1.00276302 56210
UTC large
Height (km)
Speed (km/s)
/
Latitude / Longitude
Inclination (degrees)
Orbital Period (minutes)
Azimuth
Elevation
Range (km)
Doppler Factor

Next 0 passes for location: London (51.5072 / 0.1276)

Sorry there are no passes over London.